Home > Weather > Ratingen > Past weeks

Flag for Germany Weather for the Past 2 Weeks in Ratingen, North Rhine-Westphalia, Germany

Now
46 °F

Partly sunny.


Feels Like: 37 °F
Forecast: 40 / 49 °F
Wind: 28 mph from Southwest

Location: Duesseldorf

Current Time: Feb 8, 2016 at 5:56:07 PM

Latest Report: Feb 8, 2016 at 5:20 PM


Visibility: N/A

Pressure: 29.30 "Hg

Humidity: 71%

Dew point: 37 °F

Location of RatingenLocation

Historic Weather in Ratingen — Graph

°F

Ratingen Temperature Yesterday

Maximum temperature yesterday: 52 °F (at 3:20 AM)
Minimum temperature yesterday: 45 °F (at 6:20 PM)
Average temperature yesterday: 48 °F

High & Low Weather Summary for the Past Weeks

 TemperatureHumidityPressure
High57 °F (Jan 25, 1:50 PM)100% (Jan 24, 4:20 PM)30.39 "Hg (Jan 24, 4:20 PM)
Low36 °F (Jan 28, 10:50 PM)57% (Jan 28, 2:50 PM)29.24 "Hg (Feb 8, 12:50 PM)
Average47 °F83%30.00 "Hg
* Reported Jan 24 4:20 PM — Feb 8 4:20 PM, Ratingen, Weather by CustomWeather, © 2016

Note: Actual official high and low records may vary slightly from our data, if they occured in-between our weather recording intervals... More about our weather records

Advertising

Ratingen Weather History for the Previous 24 Hours

 ConditionsComfort  
Time TempWeatherWind HumidityBarometerVisibility
4:20 PM
Mon, Feb 8
48 °FScattered clouds.31 mph66%29.30 "HgN/A
3:50 PM46 °FScattered clouds.17 mph76%29.27 "HgN/A
3:20 PM41 °FThunderstorms. Partly sunny.20 mph87%29.27 "HgN/A
2:50 PM50 °FBroken clouds.25 mph62%29.27 "HgN/A
2:20 PM48 °FBroken clouds.20 mph71%29.27 "HgN/A
1:50 PM48 °FPassing clouds.15 mph76%29.27 "HgN/A
1:20 PM43 °FRain showers. Partly sunny.25 mph87%29.27 "HgN/A
12:50 PM50 °FSprinkles. Partly sunny.26 mph71%29.24 "HgN/A
12:20 PM50 °FBroken clouds.22 mph71%29.27 "HgN/A
11:50 AM48 °FScattered clouds.26 mph76%29.27 "HgN/A
11:20 AM48 °FBroken clouds.22 mph82%29.27 "HgN/A
10:50 AM48 °FPartly sunny.21 mph82%29.27 "HgN/A
10:20 AM48 °FPartly sunny.20 mph82%29.27 "HgN/A
9:50 AM46 °FLight rain. Broken clouds.23 mph87%29.27 "HgN/A
9:20 AM48 °FLight rain. Broken clouds.24 mph82%29.30 "HgN/A
8:50 AM48 °FLight rain. Partly sunny.23 mph82%29.30 "HgN/A
8:20 AM48 °FLight rain. Partly sunny.28 mph82%29.30 "HgN/A
7:50 AM50 °FPartly cloudy.29 mph76%29.27 "HgN/A
7:20 AM48 °FRain. Passing clouds.17 mph82%29.30 "HgN/A
6:50 AM46 °FLight rain. Passing clouds.23 mph82%29.27 "HgN/A
6:20 AM46 °FLight rain. Mostly cloudy.21 mph82%29.30 "HgN/A
5:50 AM46 °FLight rain. Mostly cloudy.21 mph82%29.33 "HgN/A
5:20 AM46 °FLight rain. Overcast.22 mph76%29.36 "HgN/A
4:20 AM46 °FOvercast.23 mph76%29.39 "HgN/A
3:50 AM46 °FLight rain. Overcast.23 mph76%29.39 "HgN/A
2:50 AM46 °FPassing clouds.21 mph66%29.45 "HgN/A
2:20 AM46 °FLight rain. Passing clouds.22 mph66%29.45 "HgN/A
1:50 AM46 °FClear.21 mph66%29.47 "Hg10 mi
1:20 AM46 °FClear.21 mph66%29.47 "Hg10 mi
12:50 AM46 °FClear.20 mph66%29.50 "Hg10 mi
12:20 AM46 °FClear.18 mph66%29.53 "Hg10 mi
11:50 PM
Sun, Feb 7
46 °FClear.16 mph66%29.56 "Hg10 mi
11:20 PM45 °FClear.20 mph71%29.56 "Hg10 mi
10:50 PM45 °FClear.18 mph71%29.59 "Hg10 mi
10:20 PM45 °FClear.14 mph66%29.59 "Hg10 mi
9:50 PM45 °FClear.15 mph71%29.59 "Hg10 mi
9:20 PM45 °FClear.14 mph71%29.62 "Hg10 mi
8:50 PM45 °FClear.15 mph66%29.62 "Hg10 mi
8:20 PM45 °FClear.13 mph71%29.62 "Hg10 mi
7:50 PM45 °FClear.13 mph71%29.62 "Hg10 mi
7:20 PM46 °FPassing clouds.13 mph66%29.62 "HgN/A
6:50 PM45 °FPassing clouds.9 mph71%29.62 "HgN/A
6:20 PM45 °FPassing clouds.10 mph71%29.62 "HgN/A
5:50 PM46 °FPassing clouds.16 mph66%29.62 "HgN/A
5:20 PM46 °FPassing clouds.17 mph66%29.59 "HgN/A
Weather by CustomWeather, © 2016

See weather overviewHow to use our weather pages